Lid_Strength_Index
2 4 4 3 7 8 10 10 7 8 7 5 5 6 6 6 7 10 1 -0 -1 -1 -1 -1 -1 -2 -1 -2 -2 -2 -2 -2 -2 -2 -2 -2 -2 -2 -2 -2 -2 -2 -2 -2 -2 -2 -2 -2 -2
4 5 3 4 9 11 10 8 8 7 6 5 5 5 6 7 4 4 3 -0 -1 -1 -1 -1 -1 -2 -2 -2 -2 -2 -2 -2 -2 -2 -2 -2 -2 -2 -2 -2 -2 -2 -2 -2 -2 -2 -2 -2 -2
5 5 5 6 9 11 10 8 7 6 5 6 6 5 5 6 4 3 1 -0 -1 -1 -1 -1 -1 -2 -1 -2 -2 -2 -2 -2 -2 -2 -2 -2 -2 -2 -2 -2 -2 -2 -2 -2 -2 -2 -2 -2 -2
5 4 6 9 11 9 8 7 7 7 6 5 5 7 4 2 3 1 -0 -1 -0 -1 -1 -1 -1 -2 -1 -1 -1 -1 -2 -2 -2 -2 -2 -2 -2 -2 -2 -2 -2 -2 -2 -2 -2 -2 -2 -2 -2
4 5 8 10 10 9 8 8 6 7 6 6 5 7 6 3 1 0 0 -0 -0 -1 -1 -1 -1 -1 -2 -1 -1 -1 -2 -2 -2 -2 -2 -2 -2 -2 -2 -2 -2 -2 -2 -2 -2 -2 -2 -2 -2
5 7 10 12 10 7 8 7 7 6 6 6 6 6 6 2 2 1 -0 -0 -1 -1 -1 -1 -0 -1 -1 -2 -2 -1 -2 -2 -2 -2 -2 -2 -2 -2 -2 -2 -2 -2 -2 -2 -2 -2 -2 -2 -2
6 7 10 10 10 9 8 6 7 6 6 6 4 7 5 3 1 1 0 -0 -1 -1 -1 -1 -1 -1 -0 -1 -1 -1 -1 -2 -2 -2 -2 -2 -2 -2 -2 -2 -2 -2 -2 -2 -2 -2 -2 -2 -2
5 7 9 9 10 10 9 7 7 6 6 4 3 7 6 3 1 1 0 -0 -0 -1 -1 -1 -1 -1 -1 -1 0 0 -0 -1 -2 -2 -1 -1 -1 -2 -2 -1 -2 -2 -2 -2 -2 -2 -2 -2 -2
5 8 10 9 10 9 8 8 7 5 5 5 4 4 3 2 1 2 2 1 1 0 -0 -1 -1 -1 -1 -1 -0 1 1 -0 -0 -0 0 -0 -2 -2 -1 -1 -2 -2 -2 -2 -2 -2 -2 -2 -1
6 9 9 8 8 9 9 9 7 6 6 6 5 3 2 2 2 3 3 3 2 1 0 -1 -1 -1 -1 -1 -1 -1 -1 -2 -2 -2 -2 -1 -1 -2 -1 -0 -1 -1 -2 -2 -1 -1 -0 -0 -2
6 8 7 8 8 7 8 9 7 7 7 5 5 4 3 3 3 3 3 2 2 1 0 -0 -1 -1 -1 -1 -1 -1 -1 -1 -2 -2 -2 -1 -1 -1 -2 -2 -2 -2 0 -1 -1 -1 -1 -1 -2
8 6 6 6 6 7 7 7 9 7 6 6 4 3 4 4 4 3 3 2 2 1 1 0 -1 -1 -1 -1 -1 -1 -1 -1 -1 -1 -1 -1 -1 -1 -1 -1 -1 -1 -1 -1 -2 -2 -2 -1 -1
8 7 6 6 6 7 6 7 8 8 6 6 6 3 4 4 3 3 2 2 1 2 1 0 -0 -1 -1 -1 -1 -1 -1 -1 -1 -1 -1 -1 -0 -0 -1 -1 -1 -1 -1 -1 -1 -1 -1 -1 -1
6 7 6 6 6 6 8 7 8 7 7 7 5 5 3 3 3 3 3 2 2 1 1 -0 0 -0 -1 -1 -1 -1 -1 -1 -1 -1 -1 -1 -0 0 0 -0 -1 -1 -1 -1 -1 -1 -1 -1 -1
7 9 7 7 6 7 7 9 9 5 6 6 6 5 4 3 3 3 2 2 1 1 0 0 -0 0 -1 -1 -1 -1 -1 -1 -1 -1 -1 -0 -0 -1 0 1 0 -0 -1 -1 -1 -1 -1 -1 -1
9 8 11 8 7 6 7 11 6 5 6 5 5 6 5 4 3 2 2 2 1 1 1 0 -0 0 -0 -1 -1 -1 -1 -1 -1 -1 -1 -0 -0 -1 -1 0 1 0 -0 -1 -1 -1 -0 -0 -0
10 12 12 10 7 8 8 9 6 5 5 6 5 5 6 5 4 2 2 1 1 1 1 1 0 0 -0 -1 -1 -1 -1 -1 -1 -1 -1 -1 -1 -1 -1 -1 -1 -0 -0 -1 -1 -0 -0 0 0
13 13 12 11 9 8 9 9 6 6 6 6 6 5 6 6 5 3 2 1 1 1 1 0 0 0 -0 -0 -0 -0 -0 -1 -1 -0 -0 -1 -1 -1 -1 -1 -1 -1 -0 -0 -0 -0 -0 0 0
9 11 11 10 8 9 9 9 7 6 6 6 6 5 4 5 5 5 3 2 2 1 1 1 1 0 0 1 1 1 1 0 -0 -0 -0 0 -0 -1 -1 -1 -1 -1 -0 -0 0 0 0 1 -0
10 11 12 10 9 9 9 10 8 6 6 6 6 6 5 6 6 5 5 4 2 2 1 1 1 1 0 0 0 0 0 0 -0 -0 -0 -0 0 0 -0 -1 -0 -1 -0 0 0 1 1 1 0
11 11 11 12 9 8 10 11 9 7 6 6 6 5 4 6 6 6 5 5 3 2 2 1 1 1 0 0 0 0 0 0 1 0 0 -0 -0 -0 0 0 -1 -0 -0 0 0 0 1 2 1
13 9 10 12 12 15 10 15 10 9 8 7 6 5 5 5 6 6 5 5 4 2 1 1 1 1 0 0 1 1 2 2 1 1 0 -0 0 0 0 0 0 -0 -0 0 0 -0 0 1 2
11 9 10 11 13 14 13 16 12 10 10 9 7 6 5 4 4 5 5 5 4 3 2 1 1 1 1 0 1 1 2 1 1 1 1 0 0 0 1 1 1 1 0 -0 -0 0 0 0 1
8 10 11 11 13 18 13 14 13 11 10 9 7 6 5 5 4 4 3 4 5 4 4 1 1 1 1 1 1 1 2 2 2 1 1 1 0 0 1 1 1 1 1 0 -0 -0 0 0 1
10 13 18 19 19 18 12 14 12 9 9 8 7 6 5 5 5 4 4 4 4 4 4 4 3 2 1 1 1 1 1 1 1 1 1 1 2 2 1 1 1 1 1 1 1 0 0 0 1
12 12 16 20 19 16 13 16 12 9 8 7 7 7 6 6 5 5 4 4 4 3 4 4 3 3 2 1 1 1 1 1 1 1 1 1 1 1 1 1 1 1 1 1 1 1 0 0 0
12 15 10 14 16 17 13 11 9 8 8 8 7 7 7 6 6 6 6 6 6 5 4 3 3 3 2 1 1 1 1 1 1 1 0 1 0 0 0 0 1 1 1 1 1 1 1 1 0
10 8 15 14 20 20 14 14 12 9 8 6 7 7 6 7 7 7 7 7 7 7 6 5 4 3 2 1 1 1 1 1 1 1 1 1 0 0 0 0 1 1 1 1 2 1 1 1 1
13 13 13 13 15 17 18 13 8 8 7 8 7 7 6 6 6 7 7 7 7 7 7 7 6 5 3 2 1 1 1 1 1 1 1 1 0 0 1 0 1 1 1 1 1 2 2 2 2
9 11 12 15 17 16 16 15 8 7 7 8 7 6 5 6 6 6 6 6 7 7 8 8 7 5 4 2 1 1 1 1 1 1 1 0 1 0 0 0 1 1 1 1 2 2 2 2 3